SCP
0 0 0 0 0 0 0 0 0 0 0 0 0 0 0 0 0 1 1 2 1 1 1 1 1 1 1 1 1 3 3 4 4 2 2 2 3 3 3 2 2 2 2 1
0 0 0 0 0 0 0 0 0 0 0 0 0 0 0 0 0 1 1 1 1 1 1 1 1 1 1 1 1 2 3 4 3 2 1 1 2 3 3 3 2 2 2 2
0 0 0 0 0 0 0 0 0 0 0 0 0 0 0 0 1 1 1 1 1 0 0 0 0 0 1 1 1 2 3 3 3 1 1 0 1 1 2 2 3 3 2 2
0 0 0 0 0 0 0 0 0 0 0 0 0 0 0 0 1 1 1 1 0 0 0 0 0 0 0 1 1 2 3 3 3 1 0 0 0 0 1 1 2 2 2 2
0 0 0 0 0 0 0 0 0 0 0 0 0 0 0 0 0 0 0 0 0 0 0 0 0 0 0 1 1 2 3 4 3 1 0 0 0 0 0 0 1 1 2 2
0 0 0 0 0 0 0 0 0 0 1 0 0 0 0 0 0 0 0 0 0 0 0 0 0 0 0 0 1 2 3 4 3 2 0 0 0 0 0 0 0 0 1 1
0 0 0 0 0 0 0 0 0 1 1 0 0 0 0 0 0 0 0 0 0 0 0 0 0 0 0 0 1 2 2 3 2 1 0 0 0 0 0 0 0 0 0 0
0 0 0 0 0 0 0 0 1 1 1 0 0 0 0 0 0 0 0 0 0 0 0 0 0 0 0 0 1 1 2 2 1 0 0 0 0 0 0 0 0 0 0 0
0 0 0 0 0 0 0 0 1 1 1 0 0 0 0 0 0 0 0 0 0 0 0 0 0 0 0 0 1 1 1 1 0 0 0 0 0 0 0 0 0 0 0 0
0 0 0 0 0 0 0 0 1 1 1 0 0 0 0 0 0 0 0 0 0 0 0 0 0 0 0 0 0 0 0 0 0 0 0 0 0 0 0 0 0 0 0 0
0 0 0 0 0 0 0 0 1 1 1 1 0 0 0 0 0 0 0 0 0 0 0 0 0 0 0 0 0 0 0 0 0 0 0 0 0 0 0 0 0 0 0 0
0 0 0 0 0 0 0 0 0 1 1 1 0 0 0 0 0 0 0 0 0 0 0 0 0 0 0 0 0 0 0 0 0 0 0 0 0 0 0 0 0 0 0 0
0 0 0 0 0 0 0 0 0 0 0 0 0 0 0 0 0 0 0 0 0 0 0 0 0 0 0 0 0 0 0 0 0 0 0 0 0 0 0 0 0 0 0 0
0 0 0 0 0 0 0 0 0 0 0 0 0 0 0 0 0 0 0 0 0 0 0 0 0 0 0 0 0 0 0 0 0 0 0 0 0 0 0 0 0 0 0 0
0 0 0 0 0 0 0 0 0 0 0 0 0 0 0 0 0 0 0 0 0 0 0 0 0 0 0 0 0 0 0 0 0 0 0 0 0 0 0 0 0 0 0 0
0 0 0 0 0 0 0 0 0 0 0 0 0 0 0 0 0 0 0 0 0 0 0 0 0 0 0 0 0 0 0 0 0 0 0 0 0 0 0 0 0 0 0 0
0 0 0 0 0 0 0 0 0 0 0 0 0 0 0 0 0 0 0 0 0 0 0 0 0 0 0 0 0 0 0 0 0 0 0 0 0 0 0 0 0 0 0 0
0 0 0 0 0 0 0 0 0 0 0 0 0 0 0 0 0 0 0 0 0 0 0 0 0 0 0 0 0 0 0 0 0 0 0 0 0 0 0 0 0 0 0 0
0 0 0 0 0 0 0 0 0 0 0 0 0 0 0 0 0 0 0 0 0 0 0 0 0 0 0 0 0 0 0 0 0 0 0 0 0 0 0 0 0 0 0 0
0 0 0 0 0 0 0 0 0 0 0 0 0 0 0 0 0 0 0 0 0 0 0 0 0 0 0 0 0 0 0 0 0 0 0 0 0 0 0 0 0 0 0 0
0 0 0 0 0 0 0 0 0 0 0 0 0 0 0 0 0 0 0 0 0 0 0 0 0 0 0 0 0 0 0 0 0 0 0 0 0 0 0 0 0 0 0 0
0 0 0 0 0 0 0 0 0 0 0 0 0 0 0 0 0 0 0 0 0 0 0 0 0 0 0 0 0 0 0 0 0 0 0 0 0 0 0 0 0 0 0 0
0 0 0 0 0 0 0 0 0 0 0 0 0 0 0 0 0 0 0 0 0 0 0 0 0 0 0 0 0 0 0 0 0 0 0 0 0 0 0 0 0 0 0 0
0 0 0 0 0 0 0 0 0 0 0 0 0 0 0 0 0 0 0 0 0 0 0 0 0 0 0 0 0 0 0 0 0 0 0 0 0 0 0 0 0 0 0 0
0 0 0 0 0 0 0 0 0 0 0 0 0 0 0 0 0 0 0 0 0 0 0 0 0 0 0 0 0 0 0 0 0 0 0 0 0 0 0 0 0 0 0 0
0 0 0 0 0 0 0 0 0 0 0 0 0 0 0 0 0 0 0 0 0 0 0 0 0 0 0 0 0 0 0 0 0 0 0 0 0 0 0 0 0 0 0 0
Wind_Speed
2 4 6 6 7 5 5 7 8 6 3 6 10 12 11 8 7 7 7 6 5 5 4 3 3 3 3 3 3 3 3 3 3 3 3 3 2 2 2 1 2 2 3 3
4 6 5 4 5 5 6 8 8 6 3 6 9 12 11 8 8 8 8 7 6 5 4 3 3 3 3 3 4 4 4 3 4 3 3 2 2 2 2 1 2 2 3 3
7 2 3 5 6 7 8 8 7 6 5 5 8 10 7 5 6 6 7 6 6 5 5 4 3 3 3 3 4 3 4 4 4 4 3 2 2 1 2 2 2 2 3 3
5 4 5 6 6 6 7 5 6 6 5 4 4 7 6 5 6 6 6 6 5 5 4 3 3 3 3 4 3 3 3 3 3 4 4 5 3 3 3 2 2 2 2 2
4 4 5 6 6 6 4 2 4 5 5 6 5 7 7 4 7 7 6 4 4 3 3 3 3 3 3 2 2 2 2 2 3 3 4 4 4 3 2 2 2 2 1 1
3 2 4 4 2 3 2 2 2 3 4 6 6 7 7 4 6 5 3 3 2 2 2 2 2 2 1 1 1 1 2 2 3 3 3 4 4 4 3 3 2 2 1 1
4 4 2 2 3 4 3 3 2 3 4 5 2 6 8 3 3 3 3 2 1 1 1 1 1 1 1 1 1 2 2 2 2 3 3 4 4 4 4 3 3 3 2 2
4 5 4 3 4 4 5 5 4 4 5 3 4 8 5 1 1 1 1 1 1 1 0 1 1 1 2 2 1 2 2 2 2 2 3 3 3 3 2 3 3 3 2 2
5 3 2 2 2 3 5 5 1 1 2 5 6 6 5 2 2 2 2 1 1 1 1 0 0 1 1 1 1 1 2 1 1 1 2 2 3 3 3 3 3 2 2 2
3 3 3 2 3 0 2 4 3 4 4 6 6 7 5 4 4 3 2 2 2 1 1 1 1 1 0 0 0 1 1 1 1 1 1 1 2 2 3 3 3 3 3 2
3 3 3 4 6 6 5 5 4 2 3 5 6 5 1 4 3 4 3 2 2 2 1 1 1 1 1 0 0 1 1 1 1 1 1 1 1 2 2 2 3 3 3 3
3 3 4 4 1 3 5 6 6 4 4 5 6 5 2 2 2 3 3 2 2 2 2 1 1 1 1 1 1 1 1 1 1 1 1 1 1 1 2 2 2 3 3 3
4 4 3 3 4 4 5 5 4 2 2 5 7 6 2 1 3 3 3 3 2 2 2 2 1 1 1 1 1 1 2 1 1 1 1 1 1 2 2 2 2 2 3 3
4 4 6 7 3 5 6 7 7 6 6 8 12 11 7 6 5 5 5 4 3 3 3 2 2 2 2 2 2 2 2 2 1 1 1 1 2 2 2 2 2 2 3 3
4 4 5 6 5 5 7 10 11 12 12 11 11 12 11 8 8 7 6 5 4 3 3 3 3 3 2 2 2 2 2 2 2 1 1 2 2 2 2 2 2 2 2 3
3 3 2 4 5 6 9 12 13 14 14 15 15 15 10 8 7 7 6 5 5 5 4 4 3 3 3 3 3 3 2 2 2 2 2 2 2 2 2 2 2 2 2 3
4 4 3 4 1 4 10 11 14 11 11 11 13 11 6 6 6 6 5 5 6 5 5 4 4 3 3 3 3 3 2 2 2 2 2 2 2 2 2 2 2 2 3 3
5 4 2 2 1 8 4 0 7 10 10 11 10 9 7 6 5 5 5 5 6 5 5 4 3 3 2 2 2 2 2 2 2 2 2 2 2 2 2 2 2 2 2 3
6 6 4 3 5 9 5 3 5 7 8 9 12 11 7 4 4 5 4 4 4 4 4 3 3 2 2 2 2 2 2 2 2 2 2 2 2 2 3 3 3 3 3 3
4 4 4 5 6 8 2 2 2 3 6 4 8 8 5 3 4 3 0 2 3 3 2 2 2 2 2 3 2 2 2 3 3 3 3 3 3 3 3 3 3 3 3 3
5 5 7 7 8 8 2 3 5 5 4 1 5 6 5 6 5 2 1 2 2 2 2 2 2 2 2 2 2 2 3 3 3 2 2 3 3 3 3 3 3 3 3 3
8 8 8 7 8 9 4 7 8 4 1 2 3 4 5 5 3 3 2 1 1 1 1 1 1 1 2 2 2 3 3 3 2 2 2 2 2 2 2 3 3 3 3 3
8 7 5 8 7 2 6 6 4 2 3 4 4 4 4 4 4 3 3 2 2 2 1 1 1 2 2 2 2 3 3 2 2 2 2 2 2 2 3 3 3 3 2 2
5 3 4 6 8 6 6 6 5 5 5 4 4 4 4 4 4 4 3 2 2 2 1 1 1 2 2 2 2 2 3 2 2 2 2 2 2 2 2 2 2 2 2 3
5 6 5 8 8 6 7 9 8 6 5 4 4 4 5 4 4 4 3 3 2 2 2 2 2 2 3 3 2 2 2 2 2 2 2 2 2 2 2 2 2 3 3 3
7 8 8 8 7 6 6 5 5 5 6 5 4 4 4 4 4 4 3 3 3 2 2 2 3 3 3 3 3 2 2 2 2 2 2 2 2 2 2 2 2 3 4 5
Wind_Direction
175 207 215 216 224 248 246 242 255 264 278 264 258 268 274 265 252 247 242 233 231 234 229 218 214 200 200 202 201 198 191 185 185 191 196 194 195 196 198 208 208 204 204 196
193 226 234 221 211 221 231 242 256 267 273 267 273 272 272 259 246 244 242 236 231 230 223 215 206 197 206 209 209 210 204 197 201 206 206 210 205 209 210 208 219 216 213 205
218 220 197 202 209 226 237 244 255 268 287 258 280 265 250 247 240 242 242 240 233 228 231 223 208 206 214 220 219 218 211 208 208 201 186 170 178 190 199 213 221 224 220 210
225 231 210 213 224 230 246 243 248 255 263 268 274 277 254 247 246 240 237 231 231 227 230 230 222 217 226 228 223 224 217 215 209 197 192 186 193 204 214 210 206 214 217 205
215 212 215 226 235 227 244 256 240 243 245 264 239 255 261 233 246 242 233 227 228 228 234 237 231 226 235 233 221 227 220 217 206 201 201 201 207 209 197 190 187 193 196 201
242 232 238 238 235 215 180 177 187 218 230 247 233 238 260 232 242 242 226 227 231 229 234 239 228 210 219 214 204 218 219 221 211 199 203 210 208 203 195 195 193 198 193 197
218 207 202 209 193 177 200 209 228 218 219 240 188 237 255 261 266 248 238 244 257 238 221 224 210 194 207 212 200 213 219 224 217 203 207 214 214 211 210 208 205 206 202 210
220 214 188 205 222 210 207 217 227 249 251 258 210 238 257 282 284 235 239 242 228 228 231 223 222 207 208 208 205 212 224 226 221 214 217 215 211 211 213 215 214 214 216 218
217 214 149 215 259 220 186 201 262 241 266 262 242 257 272 229 229 203 207 207 220 256 255 255 240 231 211 200 209 226 235 227 228 237 225 222 213 209 205 207 208 212 217 215
215 221 191 196 192 216 264 164 179 206 235 254 253 252 243 216 220 214 224 250 258 268 284 295 281 280 276 242 258 269 256 245 270 264 249 236 220 209 207 204 203 212 222 222
212 200 187 196 209 205 177 180 193 207 256 258 265 256 187 206 212 218 235 265 273 277 292 309 314 321 321 349 283 249 262 291 293 273 259 236 218 206 211 215 215 219 223 223
195 197 219 220 236 280 226 203 188 211 225 243 265 268 101 207 226 239 253 266 276 291 293 297 306 313 325 328 302 284 285 295 284 266 253 250 232 219 219 225 227 225 227 227
163 175 200 197 191 194 213 207 208 201 200 218 237 254 104 236 257 257 257 273 282 294 297 287 279 279 287 296 300 292 287 294 282 248 239 244 234 227 229 235 236 237 236 235
173 201 224 240 245 189 215 214 208 203 220 231 237 257 264 265 274 279 276 280 279 282 284 274 272 273 279 283 284 286 285 286 278 241 229 240 238 233 237 239 237 244 246 246
191 221 236 262 264 234 236 226 214 221 230 239 251 254 264 269 271 271 268 268 271 274 273 266 261 267 277 283 285 287 284 281 274 251 235 249 256 250 242 238 237 243 250 256
196 214 220 254 247 244 254 242 228 232 239 245 259 266 271 276 269 268 260 252 260 266 269 266 260 263 269 277 284 288 282 276 266 255 251 256 259 258 248 240 238 242 249 252
182 179 206 240 254 276 253 232 216 219 223 229 242 253 267 265 259 263 261 251 253 262 266 262 254 254 258 264 272 275 280 276 261 256 255 256 254 256 259 251 245 249 256 258
180 175 202 233 210 239 253 181 215 223 236 232 248 261 259 260 274 273 260 255 260 265 260 258 257 256 257 264 274 277 275 266 255 251 251 253 254 261 267 260 255 261 263 263
202 181 189 204 239 266 269 214 198 212 250 235 239 253 265 286 286 264 242 238 253 260 256 254 258 262 266 268 267 265 268 261 249 248 251 255 256 261 264 260 260 260 261 265
185 189 197 202 230 247 256 148 184 197 257 229 226 239 240 216 251 269 208 265 277 276 260 249 260 270 272 274 262 253 261 256 253 258 260 262 259 257 259 261 265 264 261 264
169 189 210 218 236 261 260 157 168 207 257 213 213 223 211 214 247 304 312 298 293 290 275 252 243 249 258 258 248 249 259 266 272 270 266 264 260 258 257 259 258 254 253 259
188 188 200 203 223 246 157 161 204 242 310 237 223 223 222 231 252 264 267 267 274 292 290 268 254 273 279 264 247 252 268 285 285 268 261 263 266 266 257 251 251 246 247 254
213 208 201 206 227 296 180 210 236 252 249 248 238 236 221 230 241 244 248 251 261 270 275 268 251 275 290 279 255 256 276 284 277 267 265 269 270 263 254 248 246 246 246 251
226 221 218 241 255 256 241 251 256 249 251 250 245 236 222 231 235 238 242 245 254 260 256 247 246 261 284 291 281 266 271 269 260 267 274 270 263 263 258 252 248 246 248 251
223 192 219 246 267 277 256 244 246 250 252 244 239 234 228 222 229 228 233 240 245 254 256 242 243 254 270 280 280 278 266 255 253 260 264 266 264 265 266 261 257 255 254 257
217 208 214 241 240 232 252 251 235 233 238 234 224 228 229 220 221 229 235 239 239 242 245 246 251 254 265 269 274 276 261 245 241 251 261 262 262 264 265 270 273 256 256 269